This is the latest recevied weather packets stored in our database for station/object KM8V-8. If no packets are shown the sender has not sent any weather packets the latest 10 day(s).
| Time | Temp. | Humidity | Pressure | Rain* | Wind** | Luminosity | Snow |
|---|---|---|---|---|---|---|---|
| 1777942217 | 21.11° C | 54% | 1002.6 hPa | 0 mm | - | 0 W/m² | - |
| 1777941922 | 21.11° C | 54% | 1002.5 hPa | 0 mm | - | 1 W/m² | - |
| 1777941622 | 21.67° C | 54% | 1002.4 hPa | 0 mm | - | 1 W/m² | - |
| 1777941316 | 21.67° C | 54% | 1002.4 hPa | 0 mm | - | 3 W/m² | - |
| 1777941016 | 21.67° C | 54% | 1002.3 hPa | 0 mm | - | 5 W/m² | - |
| 1777940716 | 21.67° C | 55% | 1002.3 hPa | 0 mm | - | 7 W/m² | - |
| 1777940417 | 21.67° C | 55% | 1002.3 hPa | 0 mm | - | 11 W/m² | - |
| 1777940116 | 21.67° C | 55% | 1002.2 hPa | 0 mm | - | 13 W/m² | - |
| 1777939820 | 21.67° C | 55% | 1002.1 hPa | 0 mm | - | 15 W/m² | - |
| 1777939520 | 21.67° C | 55% | 1002 hPa | 0 mm | - | 18 W/m² | - |
| 1777939223 | 21.67° C | 55% | 1001.9 hPa | 0 mm | - | 21 W/m² | - |
| 1777938923 | 22.22° C | 55% | 1001.8 hPa | 0 mm | - | 25 W/m² | - |
| 1777938617 | 22.22° C | 55% | 1001.7 hPa | 0 mm | - | 32 W/m² | - |
| 1777938317 | 22.22° C | 54% | 1001.7 hPa | 0 mm | - | 39 W/m² | - |
| 1777938017 | 22.78° C | 53% | 1001.5 hPa | 0 mm | - | 55 W/m² | - |
| 1777937717 | 22.78° C | 52% | 1001.4 hPa | 0 mm | - | 67 W/m² | - |
| 1777937417 | 22.78° C | 52% | 1001.4 hPa | 0 mm | - | 94 W/m² | - |
| 1777937119 | 23.33° C | 51% | 1001.4 hPa | 0 mm | - | 107 W/m² | - |
| 1777936818 | 22.78° C | 51% | 1001.5 hPa | 0 mm | - | 122 W/m² | - |
| 1777936518 | 22.78° C | 51% | 1001.6 hPa | 0 mm | - | 151 W/m² | - |
| 1777936218 | 22.78° C | 52% | 1001.6 hPa | 0 mm | - | 140 W/m² | - |
| 1777935919 | 22.78° C | 52% | 1001.7 hPa | 0 mm | - | 154 W/m² | - |
| 1777935618 | 22.78° C | 52% | 1001.7 hPa | 0 mm | - | 169 W/m² | - |
| 1777935318 | 22.78° C | 53% | 1001.8 hPa | 0 mm | - | 188 W/m² | - |
| 1777935018 | 22.78° C | 54% | 1001.8 hPa | 0 mm | - | 210 W/m² | - |
* Rain latest hour (hover to see other rain measurements)
** Current wind speed in m/s (hover to see current wind gust speed)